Retour au catalogue

STARLINK-30330

ActifCommunicationsVLEO
NORAD 57636·PAYLOAD·🇺🇸 United States

Lancé Aug 17, 2023 depuis Cape Canaveral Space Force Station

Loading…

Prochains Passages (prochaines 24 heures)

TLE

FraisSource: CelesTrak SupGP

Époque: Sep 15, 2026, 01:47 UTC

1 57636C 23122E   26258.07479167  .00054680  00000+0  19805-2 0  2586
2 57636  42.9999 103.3011 0001496 276.3770 201.4556 15.27551065    13

Suivez STARLINK-30330 en temps réel avec AllMySat

Download on the App Store